GW2112 Weather Reports


Display with metric or nautical units.
time (UTC)temp
F
wind
direction
speed
MPH
gust
MPH
rain 1hr
in
rain 24hr
in
rain mn
in
humidity
%
barometer
mb
20260503023046 58 74 2.0 3.0 0.00 0.00 0.00 43 1015.1
20260503021532 60 75 2.0 2.0 0.00 0.00 0.00 43 1015.0
20260503020031 61 65 2.0 4.0 0.00 0.00 0.00 42 1015.0
20260503014530 64 41 1.0 4.0 0.00 0.00 0.00 39 1015.0
20260503013032 65 49 1.0 3.0 0.00 0.00 0.00 38 1015.0
20260503011538 66 293 1.0 3.0 0.00 0.00 0.00 36 1015.0
20260503010033 66 51 0.0 2.0 0.00 0.00 0.00 37 1015.2
20260503004535 65 0 2.0 5.0 0.00 0.00 0.00 37 1015.3
20260503003035 65 160 0.0 3.0 0.00 0.00 0.00 37 1015.4
20260503001538 65 233 1.0 6.0 0.00 0.00 0.00 37 1015.6
20260503000047 65 119 1.0 5.0 0.00 0.00 0.00 38 1015.7
20260502234532 66 149 1.0 9.0 0.00 0.00 0.00 37 1015.8
20260502233034 67 82 3.0 9.0 0.00 0.00 0.00 37 1015.7
20260502231540 67 82 3.0 9.0 0.00 0.00 0.00 38 1016.2
20260502230033 65 51 3.0 8.0 0.00 0.00 0.00 39 1016.4
20260502224534 66 333 2.0 10.0 0.00 0.00 0.00 39 1016.5
20260502223030 65 69 3.0 14.0 0.00 0.00 0.00 40 1016.9
20260502221532 65 63 4.0 10.0 0.00 0.00 0.00 40 1017.0
20260502220031 65 316 3.0 9.0 0.00 0.00 0.00 40 1017.3
20260502214529 64 23 4.0 12.0 0.00 0.00 0.00 41 1017.4
20260502213036 64 293 3.0 8.0 0.00 0.00 0.00 41 1017.6
20260502211530 64 360 1.0 5.0 0.00 0.00 0.00 41 1017.8
20260502210031 65 334 3.0 12.0 0.00 0.00 0.00 40 1017.9
20260502204532 65 325 4.0 9.0 0.00 0.00 0.00 40 1018.1
20260502203035 64 49 3.0 17.0 0.00 0.00 0.00 41 1018.2
20260502201531 63 310 5.0 12.0 0.00 0.00 0.00 43 1018.4
20260502200041 62 321 4.0 12.0 0.00 0.00 0.00 44 1018.6
20260502194533 61 27 9.0 15.0 0.00 0.00 0.00 45 1018.8
20260502193030 61 56 11.0 16.0 0.00 0.00 0.00 45 1019.0
20260502191530 61 61 9.0 15.0 0.00 0.00 0.00 44 1019.0
20260502190035 61 36 8.0 14.0 0.00 0.00 0.00 46 1019.1
20260502184537 60 43 8.0 12.0 0.00 0.00 0.00 46 1019.2
20260502183030 61 344 9.0 18.0 0.00 0.00 0.00 45 1019.2
20260502181531 61 45 7.0 16.0 0.00 0.00 0.00 45 1019.2
20260502163030 62 53 12.0 17.0 0.00 0.00 0.00 43 1019.2
20260502161532 62 46 8.0 18.0 0.00 0.00 0.00 45 1019.2
20260502151540 58 27 8.0 16.0 0.00 0.00 0.00 47 1019.2
20260502123043 47 325 3.0 10.0 0.00 0.00 0.00 60 1018.2
20260502121535 46 46 8.0 12.0 0.00 0.00 0.00 59 1017.8
20260502114530 48 347 10.0 16.0 0.00 0.00 0.00 57 1017.6
20260502113036 47 24 7.0 12.0 0.00 0.00 0.00 58 1017.5
20260502111544 47 26 2.0 13.0 0.00 0.00 0.00 56 1017.2
20260502110035 48 32 9.0 13.0 0.00 0.00 0.00 55 1016.9
20260502104533 46 323 4.0 6.0 0.00 0.00 0.00 55 1016.9
20260502103030 47 322 2.0 4.0 0.00 0.00 0.00 52 1016.5
20260502101530 49 330 2.0 9.0 0.00 0.00 0.00 49 1016.3
20260502070038 48 333 5.0 9.0 0.00 0.00 0.00 45 1014.9
20260502064535 47 326 3.0 5.0 0.00 0.00 0.00 45 1014.8
20260502063033 49 326 3.0 4.0 0.00 0.00 0.00 43 1014.9
20260502061542 51 17 2.0 8.0 0.00 0.00 0.00 41 1014.9
20260502060037 52 41 4.0 11.0 0.00 0.00 0.00 40 1014.9
20260502054535 50 315 2.0 4.0 0.00 0.00 0.00 39 1014.7
20260502053045 53 45 1.0 6.0 0.00 0.00 0.00 36 1014.7
20260502051534 53 17 3.0 6.0 0.00 0.00 0.00 34 1014.9
20260502050030 55 355 3.0 9.0 0.00 0.00 0.00 32 1014.7
20260502044535 56 313 8.0 11.0 0.00 0.00 0.00 32 1014.7
20260502043039 56 303 8.0 11.0 0.00 0.00 0.00 32 1014.6
20260502041532 55 311 7.0 10.0 0.00 0.00 0.00 32 1014.6
20260502040030 55 277 4.0 7.0 0.00 0.00 0.00 29 1014.6
20260502034533 55 294 2.0 7.0 0.00 0.00 0.00 29 1014.6
20260502033039 58 313 3.0 8.0 0.00 0.00 0.00 26 1014.5
20260502031535 59 259 5.0 8.0 0.00 0.00 0.00 26 1014.3
20260502030034 60 286 5.0 7.0 0.00 0.00 0.00 24 1014.1
20260502024534 61 281 3.0 7.0 0.00 0.00 0.00 23 1014.0